Flag for Germany Weather past 2 weeks in Fürth, Bavaria, Germany

Now
54 °F

Partly cloudy.


Feels Like: 54 °F
Forecast: 49 / 73 °F
Wind: 2 mph from North

Location: Nuernberg

Current Time: Apr 26, 2015 at 7:17:25 AM

Latest Report: Apr 26, 2015 at 6:50 AM


Visibility: N/A

Pressure: 29.83 "Hg

Humidity: 94%

Dew point: 52 °F

Location of FürthLocation

Historic Weather in Fürth — Graph

°F

Fürth temperature yesterday

Maximum temperature yesterday: 64 °F (at 4:20 PM)
Minimum temperature yesterday: 39 °F (at 4:50 AM)
Average temperature yesterday: 53 °F

Past Weeks' High & Low Weather Summary

 TemperatureHumidityPressure
High75 °F (Apr 15, 4:50 PM)100% (Apr 26, 4:50 AM)30.45 "Hg (Apr 26, 4:50 AM)
Low28 °F (Apr 19, 4:50 AM)19% (Apr 15, 5:20 PM)29.83 "Hg (Apr 25, 3:20 PM)
Average51 °F59%30.15 "Hg
* Reported Apr 11 6:20 AM — Apr 26 6:20 AM, Fürth, Weather by CustomWeather, © 2015

Note: Actual official high and low records may vary slightly from our data, if they occured in-between our weather recording intervals... More about our weather records

Advertising

Fürth weather history for previous 24 hours

 ConditionsComfort  
Time TempWeatherWind HumidityBarometerVisibility
6:20 AM
Sun, Apr 26
54 °FPassing clouds.3 mph94%29.83 "HgN/A
5:50 AM54 °FPassing clouds.3 mph94%29.83 "HgN/A
5:20 AM54 °FPassing clouds.2 mph94%29.83 "HgN/A
4:50 AM52 °FPassing clouds.1 mph100%29.83 "HgN/A
4:20 AM54 °FPassing clouds.1 mph94%29.86 "HgN/A
3:50 AM54 °FLight rain. Partly cloudy.2 mph94%29.83 "HgN/A
3:20 AM54 °FLight rain. Partly cloudy.2 mph94%29.83 "HgN/A
2:50 AM54 °FLight rain. Partly cloudy.1 mph88%29.86 "HgN/A
2:20 AM54 °FLight rain. Partly cloudy.2 mph88%29.86 "HgN/A
1:50 AM54 °FPartly cloudy.2 mph88%29.86 "HgN/A
1:20 AM54 °FPartly cloudy.3 mph88%29.86 "HgN/A
12:50 AM54 °FPartly cloudy.3 mph88%29.86 "HgN/A
12:20 AM52 °FPassing clouds.3 mph94%29.86 "HgN/A
11:20 PM
Sat, Apr 25
55 °FPassing clouds.2 mph88%29.86 "HgN/A
10:50 PM55 °FPartly cloudy.3 mph88%29.86 "HgN/A
10:20 PM55 °FLight rain. Passing clouds.2 mph88%29.86 "HgN/A
9:50 PM55 °FLight rain. Passing clouds.3 mph88%29.86 "HgN/A
9:20 PM55 °FLight rain. Partly sunny.3 mph88%29.86 "HgN/A
8:50 PM55 °FLight rain. Partly sunny.5 mph88%29.86 "HgN/A
8:20 PM55 °FLight rain. Partly sunny.1 mph88%29.86 "HgN/A
7:50 PM57 °FLight rain. Broken clouds.6 mph82%29.86 "HgN/A
7:20 PM57 °FLight rain. Broken clouds.6 mph82%29.86 "HgN/A
6:50 PM57 °FLight rain. Partly sunny.9 mph82%29.86 "HgN/A
6:20 PM57 °FLight rain. Partly sunny.5 mph88%29.86 "HgN/A
5:50 PM57 °FLight rain. Partly sunny.7 mph88%29.86 "HgN/A
5:20 PM59 °FLight rain. Partly sunny.13 mph77%29.86 "HgN/A
4:50 PM63 °FBroken clouds.12 mph59%29.83 "HgN/A
4:20 PM64 °FPartly sunny.9 mph56%29.83 "HgN/A
3:50 PM63 °FBroken clouds.9 mph64%29.83 "HgN/A
3:20 PM61 °FLight rain. Broken clouds.6 mph59%29.83 "HgN/A
2:50 PM63 °FLight rain. Partly sunny.6 mph52%29.86 "HgN/A
2:20 PM63 °FLight rain. Partly sunny.5 mph52%29.86 "HgN/A
1:50 PM63 °FLight rain. Partly sunny.3 mph45%29.86 "HgN/A
1:20 PM63 °FLight rain. Clear.10 mph42%29.86 "HgN/A
12:50 PM63 °FSunny.9 mph42%29.89 "Hg10 mi
12:20 PM61 °FPassing clouds.7 mph45%29.89 "HgN/A
11:50 AM61 °FPassing clouds.5 mph48%29.89 "HgN/A
11:20 AM59 °FPassing clouds.5 mph51%29.86 "HgN/A
10:50 AM59 °FPassing clouds.6 mph48%29.86 "HgN/A
10:20 AM57 °FPassing clouds.5 mph48%29.86 "HgN/A
9:50 AM57 °FPassing clouds.7 mph51%29.86 "HgN/A
9:20 AM54 °FPassing clouds.7 mph58%29.86 "HgN/A
8:50 AM52 °FPassing clouds.3 mph62%29.86 "HgN/A
8:20 AM48 °FSunny.3 mph66%29.86 "Hg10 mi
7:50 AM45 °FSunny.1 mph76%29.89 "Hg10 mi
7:20 AM41 °FSunny.2 mph81%29.86 "Hg10 mi
Weather by CustomWeather, © 2015

See weather overviewHow to use our weather pages